Location: Bismarck
(46.7731°N, 100.8200°W)
Time: 09:38:14
(UTC-06:00)

Amateur Radio Satellites - All Passes

Search period start: 06 February 2016 09:08
Search period end: 07 February 2016 09:08
Location: Bismarck, 46.7731°N, 100.8200°W

Satellite Date Start Highest point End Downlink Frequencies (MHz)
Time Altitude Azimuth
BRITE-PL 06 Feb 09:13:15 09:16:23 17° 302° (WNW) 09:19:23 437.365/2234.400
O/OREOS (USA 219) 06 Feb 09:14:35 09:18:53 48° 109° (ESE) 09:23:15 437.305
Cosmos 2504 06 Feb 09:15:12 09:18:29 12° 314° (NW) 09:21:48 435.465 / 435.565
FUNcube-1 06 Feb 09:15:37 09:17:51 14° 90° (E) 09:20:06 145.935
AAUSAT CUBESAT 2 06 Feb 09:22:30 09:26:36 50° 99° (E) 09:30:42 437.432
CUBEBUG 2 06 Feb 09:26:11 09:30:01 35° 97° (E) 09:33:52 437.445
CANX-2 06 Feb 09:26:52 09:31:07 62° 287° (WNW) 09:35:20 2200.000
DELFI C3 06 Feb 09:35:00 09:37:37 16° 91° (E) 09:40:13 145.870
UWE-3 06 Feb 09:35:48 09:39:35 32° 96° (E) 09:43:23 435.000/436.395/437.385
UNISAT 6 06 Feb 09:40:20 09:44:21 38° 70° (ENE) 09:48:21 437.425
POPSAT HIP 1 06 Feb 09:41:02 09:42:23 11° 58° (ENE) 09:43:44 437.405
SO-50 06 Feb 09:44:33 09:46:57 13° 340° (NNW) 09:49:21 436.795
NANOSAT C BR1 06 Feb 09:47:43 09:49:39 13° 59° (ENE) 09:51:35 145.865
DUCHIFAT 1 06 Feb 09:50:54 09:52:56 13° 59° (ENE) 09:54:58 145.980
QB50P1 06 Feb 09:52:52 09:55:17 15° 61° (ENE) 09:57:42 145.935-145.965
Oscar 11 06 Feb 09:53:34 09:57:47 46° 99° (E) 10:01:58 145.826/435.025
HUMSAT D 06 Feb 09:58:59 10:00:57 13° 89° (E) 10:02:55 437.325/437.525
HO-68 06 Feb 10:01:10 10:08:14 60° 293° (WNW) 10:15:17 435.675
GONETS M04 06 Feb 10:17:05 10:25:46 90° 274° (W) 10:34:33
CUTE 1.7 + AOD 2 06 Feb 10:18:59 10:22:18 22° 295° (WNW) 10:25:37 437.475
ANTELSAT 06 Feb 10:25:07 10:29:27 75° 257° (WSW) 10:33:46 437.575/2403.000
COMPASS 1 06 Feb 10:25:36 10:29:18 30° 292° (WNW) 10:32:59 437.405
CINEMA 3 06 Feb 10:28:53 10:32:01 21° 296° (WNW) 10:35:08 145.822/145.860
SEEDS 06 Feb 10:32:45 10:35:56 21° 296° (WNW) 10:39:07 437.485
TIGRISAT 06 Feb 10:33:30 10:37:49 64° 259° (W) 10:42:05 435.000
Cosmos 2499 06 Feb 10:33:49 10:42:13 58° 91° (E) 10:50:53 435.465 / 435.565
RS-15 06 Feb 10:35:38 10:39:38 13° 91° (E) 10:43:40 29.354- 29.394
ZACube-1 06 Feb 10:39:05 10:43:16 75° 286° (WNW) 10:47:29 437.345
POLYITAN 1 06 Feb 10:41:49 10:45:51 43° 70° (ENE) 10:49:52 437.675
QB50P2 06 Feb 10:42:39 10:46:43 46° 70° (ENE) 10:50:46 145.880/145.840
FUNcube-1 06 Feb 10:50:23 10:54:30 59° 287° (WNW) 10:58:39 145.935
O/OREOS (USA 219) 06 Feb 10:55:00 10:58:34 23° 309° (NW) 11:02:10 437.305
AISAT 06 Feb 10:56:10 10:57:38 11° 88° (E) 10:59:05 437.250
AAUSAT CUBESAT 2 06 Feb 10:58:55 11:01:46 18° 297° (WNW) 11:04:36 437.432
ESTCUBE 1 06 Feb 11:00:49 11:03:23 15° 89° (E) 11:05:56 437.505/2401.250
CUBEBUG 2 06 Feb 11:03:11 11:06:31 24° 294° (WNW) 11:09:52 437.445
BUGSAT 1 06 Feb 11:07:47 11:11:45 41° 70° (ENE) 11:15:42 437.445
DELFI C3 06 Feb 11:08:54 11:12:48 47° 288° (WNW) 11:16:41 145.870
UWE-3 06 Feb 11:12:31 11:15:57 25° 294° (WNW) 11:19:25 435.000/436.395/437.385
POPSAT HIP 1 06 Feb 11:13:16 11:17:32 90° 266° (W) 11:21:48 437.405
UNISAT 6 06 Feb 11:17:46 11:21:13 23° 266° (W) 11:24:38 437.425
AO-85 06 Feb 11:19:35 11:24:04 28° 113° (ESE) 11:28:40 145.980
NANOSAT C BR1 06 Feb 11:20:35 11:24:49 77° 256° (WSW) 11:29:05 145.865
DUCHIFAT 1 06 Feb 11:23:52 11:28:06 74° 257° (WSW) 11:32:20 145.980
CUBEBUG 1 06 Feb 11:26:22 11:29:32 19° 92° (E) 11:32:40 437.445
QB50P1 06 Feb 11:26:23 11:30:36 65° 258° (WSW) 11:34:50 145.935-145.965
UKube-1 06 Feb 11:30:02 11:33:27 22° 94° (E) 11:36:49 .
Oscar 11 06 Feb 11:30:25 11:33:37 20° 297° (WNW) 11:36:48 145.826/435.025
HUMSAT D 06 Feb 11:32:54 11:37:00 64° 287° (WNW) 11:41:08 437.325/437.525
DX 1 06 Feb 11:34:32 11:38:20 28° 96° (E) 11:42:06 434.975-435.025
AIST 1 06 Feb 11:45:40 11:50:04 77° 96° (E) 11:54:30
SPROUT 06 Feb 11:47:46 11:49:14 12° 88° (E) 11:50:43 437.525
HO-68 06 Feb 11:50:47 11:54:33 15° 315° (NW) 11:58:21 435.675
PCSat 06 Feb 12:02:11 12:07:15 42° 114° (ESE) 12:12:21 145.827
50 SAT 06 Feb 12:09:09 12:12:58 80° 103° (ESE) 12:16:46 437.505
VELOX 1 06 Feb 12:14:19 12:18:46 68° 102° (ESE) 12:23:10 145.980
GONETS M04 06 Feb 12:17:25 12:23:56 23° 302° (WNW) 12:30:31
POLYITAN 1 06 Feb 12:18:47 12:21:53 19° 268° (W) 12:24:58 437.675
QB50P2 06 Feb 12:19:46 12:22:46 19° 268° (W) 12:25:47 145.880/145.840
Cosmos 2499 06 Feb 12:27:48 12:35:46 38° 293° (WNW) 12:43:56 435.465 / 435.565
AISAT 06 Feb 12:30:17 12:34:43 80° 286° (WNW) 12:39:07 437.250
ESTCUBE 1 06 Feb 12:36:08 12:40:40 66° 286° (WNW) 12:45:10 437.505/2401.250
JAS-2 06 Feb 12:36:58 12:44:02 42° 65° (ENE) 12:50:34 435.910
RS-15 06 Feb 12:38:19 12:49:04 58° 115° (ESE) 13:00:26 29.354- 29.394
AO-7 06 Feb 12:43:17 12:47:15 14° 36° (NE) 12:51:12 29.400- 29.500
BUGSAT 1 06 Feb 12:44:09 12:47:19 20° 267° (W) 12:50:29 437.445
DANDE 06 Feb 12:47:29 12:53:47 26° 58° (ENE) 12:59:06 436.750
CUSAT 1 06 Feb 12:48:09 12:54:13 33° 64° (ENE) 12:59:01 437.405
Oscar 19 06 Feb 12:50:57 12:56:02 58° 71° (ENE) 13:01:07 437.125/150
Gurwin Techsat 1B 06 Feb 12:50:59 12:55:15 25° 62° (ENE) 12:59:32 435.225
AO-85 06 Feb 12:58:58 13:04:19 58° 312° (NW) 13:09:47 145.980
CUBEBUG 1 06 Feb 13:01:52 13:06:06 47° 289° (WNW) 13:10:16 437.445
YUBILEINY 06 Feb 13:04:15 13:09:22 16° 52° (NE) 13:14:27 435.215
UKube-1 06 Feb 13:05:36 13:09:40 40° 291° (WNW) 13:13:41 .
SO-50 06 Feb 13:08:44 13:12:12 19° 29° (NNE) 13:15:36 436.795
DX 1 06 Feb 13:10:39 13:14:32 31° 293° (WNW) 13:18:22 434.975-435.025
SPROUT 06 Feb 13:21:29 13:25:46 75° 286° (WNW) 13:30:01 437.525
AIST 1 06 Feb 13:26:21 13:28:17 13° 296° (WNW) 13:30:12
SWISSCUBE 06 Feb 13:30:49 13:32:50 12° 88° (E) 13:34:51 437.505
PCSat 06 Feb 13:45:42 13:50:43 37° 314° (NW) 13:55:47 145.827
TISAT 1 06 Feb 13:45:43 13:49:55 77° 104° (ESE) 13:54:05 437.305
50 SAT 06 Feb 13:45:46 13:46:25 10° 301° (WNW) 13:47:04 437.505
ITAMSAT 1 06 Feb 13:51:15 13:56:08 44° 68° (ENE) 14:01:04 435.822/435.867
VELOX 1 06 Feb 13:52:06 13:54:44 16° 300° (WNW) 13:57:21 145.980
ITUPSAT 1 06 Feb 14:04:06 14:07:57 23° 93° (E) 14:11:47 437.325
AISAT 06 Feb 14:09:20 14:10:28 11° 304° (NW) 14:11:35 437.250
BEESAT 06 Feb 14:14:57 14:19:10 30° 95° (E) 14:23:21 436.000
M-CUBED/EXP-1 PRIME 06 Feb 14:17:54 14:19:42 13° 58° (ENE) 14:21:28 437.505
JAS-2 06 Feb 14:21:31 14:28:57 48° 262° (W) 14:35:51 435.910
Gurwin Techsat 1B 06 Feb 14:29:43 14:34:53 53° 260° (W) 14:40:06 435.225
DANDE 06 Feb 14:30:01 14:37:48 76° 263° (W) 14:43:51 436.750
AO-7 06 Feb 14:30:08 14:38:02 48° 60° (ENE) 14:45:55 29.400- 29.500
CUSAT 1 06 Feb 14:30:31 14:36:42 42° 271° (W) 14:41:29 437.405
AUBIESAT-1 06 Feb 14:30:52 14:33:01 15° 58° (ENE) 14:35:06 437.475
Oscar 19 06 Feb 14:31:51 14:35:44 21° 269° (W) 14:39:36 437.125/150
AO-85 06 Feb 14:42:12 14:46:00 19° 334° (NNW) 14:49:47 145.980
SO-50 06 Feb 14:48:40 14:53:33 75° 52° (NE) 14:58:15 436.795
RS-15 06 Feb 14:50:43 15:01:45 55° 321° (NW) 15:13:27 29.354- 29.394
YUBILEINY 06 Feb 14:59:26 15:08:17 65° 76° (ENE) 15:17:01 435.215
SWISSCUBE 06 Feb 15:06:26 15:11:17 84° 285° (WNW) 15:16:05 437.505
Cosmos 2491 06 Feb 15:07:46 15:15:14 34° 83° (E) 15:22:43 435.465 / 435.565
Cosmos 2504 06 Feb 15:10:43 15:16:59 21° 56° (NE) 15:23:00 435.465 / 435.565
KKS-1 06 Feb 15:21:08 15:24:24 20° 92° (E) 15:27:40 437.445
TISAT 1 06 Feb 15:23:09 15:25:01 13° 301° (WNW) 15:26:53 437.305
ITAMSAT 1 06 Feb 15:31:23 15:35:46 27° 266° (W) 15:40:13 435.822/435.867
PCSat 06 Feb 15:33:37 15:35:46 12° 338° (NNW) 15:37:55 145.827
ITUPSAT 1 06 Feb 15:41:24 15:46:00 46° 291° (WNW) 15:50:35 437.325
HORYU 2 06 Feb 15:48:20 15:52:36 49° 70° (ENE) 15:56:52 437.375
M-CUBED/EXP-1 PRIME 06 Feb 15:50:23 15:54:03 55° 252° (WSW) 15:57:30 437.505
BEESAT 06 Feb 15:52:38 15:57:00 36° 293° (WNW) 16:01:21 436.000
AUBIESAT-1 06 Feb 16:03:46 16:07:21 46° 254° (WSW) 16:10:45 437.475
DANDE 06 Feb 16:15:18 16:19:04 15° 287° (WNW) 16:22:30 436.750
MOZHAYETS 4 06 Feb 16:22:35 16:26:51 35° 96° (E) 16:31:05
AO-7 06 Feb 16:22:51 16:30:49 47° 260° (W) 16:38:51 29.400- 29.500
AO-85 06 Feb 16:27:10 16:28:45 11° 358° (N) 16:30:18 145.980
SO-50 06 Feb 16:30:26 16:33:27 17° 250° (WSW) 16:36:23 436.795
CUTE-I 06 Feb 16:41:58 16:45:41 20° 58° (ENE) 16:49:24 437.470
SWISSCUBE 06 Feb 16:46:13 16:48:20 13° 304° (NW) 16:50:27 437.505
STARS 06 Feb 16:49:56 16:54:20 87° 107° (ESE) 16:58:42 437.465
Cubesat XI-IV 06 Feb 16:53:52 16:58:03 24° 61° (ENE) 17:02:15 437.490
KKS-1 06 Feb 16:56:59 17:01:14 46° 290° (WNW) 17:05:27 437.445
YUBILEINY 06 Feb 16:57:01 17:04:28 32° 278° (W) 17:11:54 435.215
Cosmos 2491 06 Feb 17:03:00 17:11:35 61° 284° (WNW) 17:20:13 435.465 / 435.565
Cosmos 2504 06 Feb 17:03:07 17:11:59 81° 80° (E) 17:20:15 435.465 / 435.565
RS-15 06 Feb 17:07:22 17:17:32 33° 354° (N) 17:28:10 29.354- 29.394
BRITE-PL 06 Feb 17:09:40 17:13:35 19° 59° (ENE) 17:17:26 437.365/2234.400
HORYU 2 06 Feb 17:26:20 17:29:27 19° 268° (W) 17:32:35 437.375
O/OREOS (USA 219) 06 Feb 17:42:46 17:46:21 22° 51° (NE) 17:49:56 437.305
LilacSat-2 06 Feb 17:43:30 17:47:06 40° 71° (ENE) 17:50:43 437.200
ISS 06 Feb 17:54:11 17:57:09 33° 143° (SE) 18:00:07 145.825
MOZHAYETS 4 06 Feb 17:59:57 18:03:55 29° 294° (WNW) 18:07:55
BEESAT 3 06 Feb 18:01:17 18:04:08 19° 113° (ESE) 18:06:58 437.485
AO-85 06 Feb 18:08:11 18:11:34 16° 23° (NNE) 18:14:49 145.980
BEESAT 2 06 Feb 18:18:45 18:21:37 19° 113° (ESE) 18:24:29 435.950
CUTE-I 06 Feb 18:19:52 18:25:11 72° 257° (WSW) 18:30:32 437.470
STARS 06 Feb 18:28:17 18:30:03 12° 303° (WNW) 18:31:48 437.465
GONETS M04 06 Feb 18:29:16 18:33:00 13° 48° (NE) 18:36:44
CUBESAT XI-V 06 Feb 18:29:44 18:34:29 73° 102° (ESE) 18:39:10 437.345
Cubesat XI-IV 06 Feb 18:32:33 18:37:46 56° 259° (W) 18:43:03 437.490
GOMX 1 06 Feb 18:33:10 18:38:22 48° 70° (ENE) 18:43:23 467.674
DOVE 4 06 Feb 18:34:03 18:38:19 27° 66° (ENE) 18:42:26 437.250
BRITE-PL 06 Feb 18:45:43 18:51:26 80° 257° (WSW) 18:57:04 437.365/2234.400
HO-68 06 Feb 18:45:49 18:51:59 33° 58° (ENE) 18:58:12 435.675
CANX-2 06 Feb 18:48:26 18:50:57 16° 61° (ENE) 18:53:28 2200.000
Cosmos 2504 06 Feb 18:57:45 19:04:17 25° 282° (WNW) 19:10:35 435.465 / 435.565
PCSat 06 Feb 19:04:16 19:07:48 17° 31° (NNE) 19:11:20 145.827
Cosmos 2491 06 Feb 19:06:08 19:10:38 15° 310° (NW) 19:15:11 435.465 / 435.565
STRAND 1 06 Feb 19:18:19 19:22:54 31° 95° (E) 19:27:27 437.568
LilacSat-2 06 Feb 19:19:04 19:21:38 17° 268° (W) 19:24:12 437.200
O/OREOS (USA 219) 06 Feb 19:21:36 19:26:04 52° 250° (WSW) 19:30:32 437.305
RS-15 06 Feb 19:22:51 19:34:04 43° 28° (NNE) 19:45:36 29.354- 29.394
ISS 06 Feb 19:30:20 19:33:31 52° 341° (NNW) 19:36:43 145.825
BEESAT 3 06 Feb 19:37:40 19:41:34 51° 311° (NW) 19:45:28 437.485
CUTE 1.7 + AOD 2 06 Feb 19:37:59 19:41:56 41° 70° (ENE) 19:45:55 437.475
COMPASS 1 06 Feb 19:43:47 19:47:19 28° 67° (ENE) 19:50:53 437.405
AIST 2 06 Feb 19:45:26 19:48:11 17° 112° (ESE) 19:50:56 435.215
AO-85 06 Feb 19:48:13 19:53:23 50° 46° (NE) 19:58:09 145.980
SEEDS 06 Feb 19:50:51 19:54:48 42° 70° (ENE) 19:58:46 437.485
CINEMA 3 06 Feb 19:55:02 19:59:36 55° 73° (ENE) 20:03:59 145.822/145.860
BEESAT 2 06 Feb 19:55:15 19:59:11 51° 312° (NW) 20:03:08 435.950
ZACube-1 06 Feb 20:03:43 20:05:56 14° 61° (ENE) 20:08:08 437.345
PRISM 06 Feb 20:06:18 20:09:55 27° 95° (E) 20:13:30 437.425
CUBESAT XI-V 06 Feb 20:08:27 20:11:18 16° 301° (WNW) 20:14:09 437.345
DOVE 4 06 Feb 20:10:56 20:15:50 43° 262° (W) 20:20:33 437.250
GOMX 1 06 Feb 20:12:02 20:16:36 27° 267° (W) 20:21:03 467.674
FUNcube-1 06 Feb 20:14:09 20:16:51 17° 62° (ENE) 20:19:33 145.935
AAUSAT CUBESAT 2 06 Feb 20:15:27 20:19:26 48° 72° (ENE) 20:23:27 437.432
CANX-2 06 Feb 20:22:12 20:26:21 60° 259° (W) 20:30:34 2200.000
Cosmos 2499 06 Feb 20:22:27 20:29:26 26° 60° (ENE) 20:35:59 435.465 / 435.565
GONETS M04 06 Feb 20:23:44 20:32:19 54° 74° (ENE) 20:40:54
DELFI C3 06 Feb 20:24:42 20:27:03 15° 62° (ENE) 20:29:25 145.870
CUBEBUG 2 06 Feb 20:26:55 20:31:02 42° 71° (ENE) 20:35:04 437.445
BRITE-PL 06 Feb 20:28:10 20:30:42 13° 275° (W) 20:33:11 437.365/2234.400
HO-68 06 Feb 20:32:16 20:39:20 61° 258° (WSW) 20:46:28 435.675
UWE-3 06 Feb 20:35:31 20:39:30 38° 70° (ENE) 20:43:24 435.000/436.395/437.385
PCSat 06 Feb 20:46:52 20:52:19 64° 54° (NE) 20:57:42 145.827
Oscar 11 06 Feb 20:50:53 20:55:03 51° 71° (ENE) 20:59:14 145.826/435.025
HUMSAT D 06 Feb 20:53:34 20:55:45 14° 61° (ENE) 20:57:56 437.325/437.525
STRAND 1 06 Feb 20:57:22 21:02:08 39° 294° (WNW) 21:06:53 437.568
ISS 06 Feb 21:07:24 21:10:24 33° 2° (N) 21:13:23 145.825
CUTE 1.7 + AOD 2 06 Feb 21:14:50 21:17:59 20° 268° (W) 21:21:09 437.475
BEESAT 3 06 Feb 21:18:46 21:20:15 12° 333° (NNW) 21:21:44 437.485
COMPASS 1 06 Feb 21:19:13 21:22:51 29° 265° (W) 21:26:31 437.405
AIST 2 06 Feb 21:22:08 21:26:16 60° 310° (NW) 21:30:25 435.215
SEEDS 06 Feb 21:27:42 21:30:43 19° 268° (W) 21:33:46 437.485
AO-85 06 Feb 21:29:16 21:33:39 28° 247° (WSW) 21:37:43 145.980
CINEMA 3 06 Feb 21:33:52 21:37:02 18° 269° (W) 21:40:08 145.822/145.860
RS-15 06 Feb 21:35:56 21:48:06 87° 236° (SW) 22:00:29 29.354- 29.394
BEESAT 2 06 Feb 21:36:25 21:38:01 12° 333° (NNW) 21:39:36 435.950
ZACube-1 06 Feb 21:37:32 21:41:46 67° 259° (WSW) 21:45:56 437.345
VELOX 1 06 Feb 21:41:17 21:42:52 12° 57° (ENE) 21:44:27 145.980
PRISM 06 Feb 21:41:33 21:45:16 31° 293° (WNW) 21:48:56 437.425
FUNcube-1 06 Feb 21:48:37 21:52:46 53° 260° (W) 21:56:51 145.935
AIST 1 06 Feb 21:50:12 21:53:52 26° 71° (ENE) 21:57:30
AAUSAT CUBESAT 2 06 Feb 21:52:32 21:55:14 17° 269° (W) 21:57:58 437.432
AISAT 06 Feb 21:55:51 21:58:41 17° 60° (ENE) 22:01:30 437.250
DELFI C3 06 Feb 21:57:41 22:01:33 55° 259° (W) 22:05:30 145.870
ESTCUBE 1 06 Feb 22:02:58 22:06:16 20° 62° (ENE) 22:09:36 437.505/2401.250
CUBEBUG 2 06 Feb 22:04:37 22:07:51 20° 267° (W) 22:11:03 437.445
UWE-3 06 Feb 22:12:46 22:16:06 22° 267° (W) 22:19:25 435.000/436.395/437.385
ANTELSAT 06 Feb 22:14:40 22:17:36 18° 92° (E) 22:20:33 437.575/2403.000
Cosmos 2499 06 Feb 22:15:01 22:23:39 80° 265° (W) 22:31:36 435.465 / 435.565
GONETS M04 06 Feb 22:21:00 22:28:53 39° 275° (W) 22:36:46
TIGRISAT 06 Feb 22:22:36 22:25:48 20° 93° (E) 22:29:01 435.000
CUBEBUG 1 06 Feb 22:24:58 22:28:33 24° 64° (ENE) 22:32:07 437.445
HUMSAT D 06 Feb 22:26:52 22:30:55 63° 258° (WSW) 22:35:00 437.325/437.525
HO-68 06 Feb 22:27:03 22:28:32 11° 278° (W) 22:30:01 435.675
UKube-1 06 Feb 22:27:16 22:30:58 28° 66° (ENE) 22:34:40 .
Oscar 11 06 Feb 22:28:38 22:31:29 17° 269° (W) 22:34:21 145.826/435.025
PCSat 06 Feb 22:31:08 22:35:13 22° 253° (WSW) 22:39:19 145.827
DX 1 06 Feb 22:32:36 22:36:37 36° 68° (ENE) 22:40:39 434.975-435.025
ISS 06 Feb 22:43:59 22:47:13 62° 22° (NNE) 22:50:26 145.825
SPROUT 06 Feb 22:44:09 22:46:31 15° 60° (ENE) 22:48:53 437.525
50 SAT 06 Feb 22:52:05 22:55:43 58° 73° (ENE) 22:59:24 437.505
POPSAT HIP 1 06 Feb 22:57:18 22:58:54 12° 88° (E) 23:00:29 437.405
AIST 2 06 Feb 23:03:30 23:05:38 14° 331° (NNW) 23:07:46 435.215
NANOSAT C BR1 06 Feb 23:03:45 23:05:56 14° 90° (E) 23:08:05 145.865
UNISAT 6 06 Feb 23:05:13 23:09:28 57° 101° (E) 23:13:45 437.425
DUCHIFAT 1 06 Feb 23:06:43 23:08:57 14° 90° (E) 23:11:11 145.980
TISAT 1 06 Feb 23:08:31 23:09:10 10° 57° (ENE) 23:09:50 437.305
QB50P1 06 Feb 23:09:23 23:12:04 16° 91° (E) 23:14:45 145.935-145.965
VELOX 1 06 Feb 23:14:09 23:18:37 85° 76° (ENE) 23:23:08 145.980
AIST 1 06 Feb 23:27:36 23:31:31 32° 270° (W) 23:35:22
AISAT 06 Feb 23:30:15 23:34:42 64° 258° (WSW) 23:39:10 437.250
ESTCUBE 1 06 Feb 23:38:21 23:42:45 51° 260° (W) 23:47:12 437.505/2401.250
RS-15 06 Feb 23:49:37 23:58:59 28° 259° (W) 00:08:31 29.354- 29.394
ANTELSAT 06 Feb 23:50:27 23:54:37 50° 289° (WNW) 23:58:50 437.575/2403.000
TIGRISAT 06 Feb 23:58:38 00:02:42 43° 290° (WNW) 00:06:49 435.000
POLYITAN 1 06 Feb 23:59:29 00:03:38 54° 100° (E) 00:07:45 437.675
QB50P2 07 Feb 00:00:19 00:04:30 57° 101° (ESE) 00:08:37 145.880/145.840
CUBEBUG 1 07 Feb 00:00:28 00:04:38 40° 262° (W) 00:08:51 437.445
UKube-1 07 Feb 00:03:02 00:06:57 32° 263° (W) 00:10:53 .
DX 1 07 Feb 00:09:16 00:12:53 25° 265° (W) 00:16:32 434.975-435.025
Cosmos 2499 07 Feb 00:10:10 00:15:15 18° 287° (WNW) 00:20:08 435.465 / 435.565
SPROUT 07 Feb 00:17:42 00:21:59 69° 258° (WSW) 00:26:18 437.525
ISS 07 Feb 00:20:44 00:23:29 26° 219° (SW) 00:26:15 145.825
BUGSAT 1 07 Feb 00:22:01 00:25:57 45° 99° (E) 00:29:49 437.445
50 SAT 07 Feb 00:28:52 00:30:09 11° 271° (W) 00:31:26 437.505
POPSAT HIP 1 07 Feb 00:31:00 00:35:13 71° 286° (WNW) 00:39:23 437.405
NANOSAT C BR1 07 Feb 00:37:57 00:42:06 61° 287° (WNW) 00:46:14 145.865
SWISSCUBE 07 Feb 00:39:26 00:43:01 21° 61° (ENE) 00:46:35 437.505
TISAT 1 07 Feb 00:39:54 00:44:08 82° 77° (ENE) 00:48:23 437.305
DUCHIFAT 1 07 Feb 00:40:57 00:45:05 59° 287° (WNW) 00:49:11 145.980
UNISAT 6 07 Feb 00:43:01 00:45:48 17° 298° (WNW) 00:48:36 437.425
QB50P1 07 Feb 00:44:06 00:48:11 51° 289° (WNW) 00:52:15 145.935-145.965
VELOX 1 07 Feb 00:54:29 00:55:44 11° 273° (W) 00:56:58 145.980
Oscar 19 07 Feb 01:00:51 01:03:56 16° 89° (E) 01:07:01 437.125/150
ITUPSAT 1 07 Feb 01:13:26 01:17:48 37° 67° (ENE) 01:22:13 437.325
Cosmos 2491 07 Feb 01:13:43 01:19:50 20° 56° (NE) 01:25:56 435.465 / 435.565
BEESAT 07 Feb 01:23:58 01:28:31 47° 69° (ENE) 01:33:06 436.000
JAS-2 07 Feb 01:29:38 01:34:00 21° 88° (E) 01:38:04 435.910
POLYITAN 1 07 Feb 01:36:21 01:39:03 17° 298° (WNW) 01:41:46 437.675
QB50P2 07 Feb 01:37:15 01:39:53 16° 299° (WNW) 01:42:31 145.880/145.840
CUSAT 1 07 Feb 01:52:15 01:59:16 37° 87° (E) 02:06:28 437.405
BUGSAT 1 07 Feb 01:58:14 02:01:02 18° 297° (WNW) 02:03:48 437.445
DANDE 07 Feb 01:58:25 02:04:28 26° 81° (E) 02:10:59 436.750
ITAMSAT 1 07 Feb 02:03:10 02:05:05 12° 86° (E) 02:07:00 435.822/435.867
YUBILEINY 07 Feb 02:13:06 02:17:09 14° 71° (ENE) 02:21:11 435.215
BEESAT 3 07 Feb 02:15:12 02:18:48 32° 43° (NE) 02:22:23 437.485
STARS 07 Feb 02:15:23 02:17:43 14° 59° (ENE) 02:20:04 437.465
SWISSCUBE 07 Feb 02:15:48 02:20:28 53° 260° (W) 02:25:10 437.505
TISAT 1 07 Feb 02:19:37 02:20:23 10° 272° (W) 02:21:10 437.305
KKS-1 07 Feb 02:21:47 02:25:32 27° 65° (ENE) 02:29:18 437.445
BEESAT 2 07 Feb 02:33:21 02:37:00 32° 43° (NE) 02:40:37 435.950
Oscar 19 07 Feb 02:38:41 02:43:50 74° 287° (WNW) 02:48:56 437.125/150
Gurwin Techsat 1B 07 Feb 02:42:46 02:47:58 50° 99° (E) 02:53:07 435.225
ITUPSAT 1 07 Feb 02:51:37 02:55:43 28° 265° (W) 02:59:52 437.325
PHONESAT 2.4 07 Feb 02:56:38 02:58:06 12° 156° (SSE) 02:59:34 2401.200-2431.200
BEESAT 07 Feb 03:02:51 03:06:33 22° 267° (W) 03:10:16 436.000
Cosmos 2491 07 Feb 03:09:27 03:18:16 80° 81° (E) 03:27:03 435.465 / 435.565
JAS-2 07 Feb 03:13:50 03:19:43 60° 290° (WNW) 03:25:00 435.910
MOZHAYETS 4 07 Feb 03:27:06 03:31:26 45° 70° (ENE) 03:35:49
CUSAT 1 07 Feb 03:33:28 03:41:16 59° 287° (WNW) 03:49:16 437.405
DANDE 07 Feb 03:38:51 03:46:30 82° 282° (WNW) 03:55:05 436.750
ITAMSAT 1 07 Feb 03:40:04 03:45:21 84° 106° (ESE) 03:50:36 435.822/435.867
STARS 07 Feb 03:49:08 03:53:33 75° 257° (WSW) 03:57:58 437.465
BEESAT 3 07 Feb 03:53:01 03:56:34 31° 242° (WSW) 04:00:04 437.485
Cosmos 2504 07 Feb 03:56:25 04:00:16 14° 70° (ENE) 04:04:09 435.465 / 435.565
KKS-1 07 Feb 03:57:54 04:02:00 35° 263° (W) 04:06:08 437.445
CUBESAT XI-V 07 Feb 04:01:11 04:03:33 14° 58° (ENE) 04:05:54 437.345
AIST 2 07 Feb 04:02:47 04:06:32 31° 43° (NE) 04:10:14 435.215
YUBILEINY 07 Feb 04:03:28 04:12:07 67° 93° (E) 04:20:51 435.215
BEESAT 2 07 Feb 04:11:19 04:14:53 32° 243° (WSW) 04:18:25 435.950
Oscar 19 07 Feb 04:20:14 04:22:16 12° 306° (NW) 04:24:19 437.125/150
AO-7 07 Feb 04:20:32 04:28:40 52° 101° (ESE) 04:36:42 29.400- 29.500
Gurwin Techsat 1B 07 Feb 04:23:16 04:27:39 26° 298° (WNW) 04:32:00 435.225
PHONESAT 2.4 07 Feb 04:31:59 04:34:44 25° 173° (S) 04:37:30 2401.200-2431.200
M-CUBED/EXP-1 PRIME 07 Feb 05:01:25 05:04:42 57° 107° (ESE) 05:08:05 437.505
JAS-2 07 Feb 05:01:40 05:03:24 11° 313° (NW) 05:05:06 435.910
MOZHAYETS 4 07 Feb 05:05:22 05:08:50 21° 268° (W) 05:12:22
Cosmos 2491 07 Feb 05:07:33 05:14:06 25° 282° (WNW) 05:20:40 435.465 / 435.565
SO-50 07 Feb 05:08:15 05:10:18 13° 107° (ESE) 05:12:23 436.795
HORYU 2 07 Feb 05:12:38 05:17:04 66° 103° (ESE) 05:21:29 437.375
AUBIESAT-1 07 Feb 05:14:06 05:17:27 69° 108° (ESE) 05:20:57 437.475
CUSAT 1 07 Feb 05:20:37 05:25:17 16° 308° (NW) 05:29:58 437.405
ITAMSAT 1 07 Feb 05:20:56 05:24:09 17° 303° (WNW) 05:27:22 435.822/435.867
DANDE 07 Feb 05:24:50 05:30:53 23° 304° (NW) 05:37:17 436.750
CUBESAT XI-V 07 Feb 05:35:33 05:40:15 86° 256° (WSW) 05:45:01 437.345
AIST 2 07 Feb 05:41:17 05:45:04 35° 242° (WSW) 05:48:49 435.215
Cosmos 2504 07 Feb 05:43:21 05:51:44 64° 92° (E) 06:00:30 435.465 / 435.565
YUBILEINY 07 Feb 06:01:59 06:09:37 32° 295° (WNW) 06:17:21 435.215
PHONESAT 2.4 07 Feb 06:08:51 06:11:32 24° 190° (S) 06:14:13 2401.200-2431.200
AO-7 07 Feb 06:13:37 06:21:18 43° 302° (WNW) 06:28:57 29.400- 29.500
CUTE-I 07 Feb 06:34:06 06:39:05 37° 97° (E) 06:44:01 437.470
STRAND 1 07 Feb 06:36:51 06:41:51 59° 71° (ENE) 06:46:55 437.568
M-CUBED/EXP-1 PRIME 07 Feb 06:37:51 06:39:00 11° 304° (NW) 06:40:09 437.505
SO-50 07 Feb 06:45:06 06:50:01 82° 126° (SE) 06:55:00 436.795
Cubesat XI-IV 07 Feb 06:46:42 06:51:53 47° 99° (E) 06:57:03 437.490
LilacSat-2 07 Feb 06:48:17 06:51:52 40° 98° (E) 06:55:27 437.200
BRITE-PL 07 Feb 06:48:58 06:53:10 27° 92° (E) 06:57:04 437.365/2234.400
HORYU 2 07 Feb 06:50:28 06:53:09 16° 300° (WNW) 06:55:50 437.375
AUBIESAT-1 07 Feb 06:51:04 06:51:38 10° 305° (NW) 06:52:12 437.475
PRISM 07 Feb 06:58:35 07:02:12 30° 67° (ENE) 07:05:53 437.425
CUBESAT XI-V 07 Feb 07:17:32 07:18:23 10° 274° (W) 07:19:14 437.345
Cosmos 2504 07 Feb 07:38:03 07:45:43 35° 294° (WNW) 07:53:41 435.465 / 435.565
GONETS M04 07 Feb 07:40:42 07:41:57 10° 68° (ENE) 07:43:13
PHONESAT 2.4 07 Feb 07:47:23 07:48:08 11° 206° (SSW) 07:48:53 2401.200-2431.200
HO-68 07 Feb 07:57:23 08:02:59 24° 91° (E) 08:08:33 435.675
O/OREOS (USA 219) 07 Feb 08:00:26 08:02:09 12° 97° (E) 08:03:54 437.305
CANX-2 07 Feb 08:05:04 08:08:10 19° 92° (E) 08:11:16 2200.000
DOVE 4 07 Feb 08:07:15 08:11:21 40° 97° (E) 08:15:16 437.250
AO-7 07 Feb 08:08:37 08:11:55 13° 326° (NW) 08:15:14 29.400- 29.500
GOMX 1 07 Feb 08:10:29 08:15:07 85° 100° (E) 08:19:27 467.674
CUTE-I 07 Feb 08:14:15 08:19:06 35° 295° (WNW) 08:23:55 437.470
STRAND 1 07 Feb 08:17:44 08:21:26 20° 269° (W) 08:25:09 437.568
LilacSat-2 07 Feb 08:23:22 08:25:56 18° 296° (WNW) 08:28:28 437.200
SO-50 07 Feb 08:27:11 08:31:07 23° 326° (NW) 08:35:04 436.795
BRITE-PL 07 Feb 08:27:12 08:31:47 38° 293° (WNW) 08:36:01 437.365/2234.400
Cubesat XI-IV 07 Feb 08:27:12 08:31:45 28° 297° (WNW) 08:36:17 437.490
PRISM 07 Feb 08:33:57 08:37:32 28° 264° (W) 08:41:10 437.425
CUTE 1.7 + AOD 2 07 Feb 08:55:28 08:59:42 56° 100° (E) 09:03:55 437.475
COMPASS 1 07 Feb 08:58:46 09:02:39 34° 96° (E) 09:06:31 437.405
